Location: Balaclava NSW 2575, Australia
(34.4510°S, 150.4953°E)
Time: 19:06:39
(UTC+10:00)

Vanguard 2 - Pass Details

Date: 23 June 2021
Orbit: 552 x 2937 km, 32.9° (Epoch: 24 July)

Event Time Altitude Azimuth Distance (km) Brightness Sun altitude
Rises 05:16:40 0° 290° (WNW) 3,254 - -21.6°
Reaches altitude 10° 05:18:42 10° 292° (WNW) 2,511 - -21.2°
Exits shadow 05:20:50 26° 298° (WNW) 1,813 9.0 -20.7°
Maximum altitude 05:24:38 70° 15° (NNE) 1,258 8.6 -20.0°
Drops below altitude 10° 05:34:48 10° 95° (E) 4,153 12.3 -18.0°
Sets 05:39:05 0° 97° (E) 5,544 13.1 -17.1°
